Regional Weather Roundup
Issued by NWS

Home | Current Version | Previous Version | Graphics & Text | Print | Product List | Glossary On
Versions: 1 2 3 4 5 6 7 8 9 10 11 12 13 14 15 16 17 18 19 20 21 22 23 24 25 26 27 28 29 30 31 32 33 34 35 36 37 38 39 40 41 42 43 44 45 46 47 48 49 50
000
ASUS45 KCYS 212010
RWRWY

WYOMING REGIONAL WEATHER ROUNDUP
NATIONAL WEATHER SERVICE CHEYENNE WY
200 PM MDT SUN SEP 21 2014

NOTE:  "FAIR" INDICATES FEW OR NO CLOUDS BELOW 12,000 FEET
WITH NO SIGNIFICANT WEATHER AND/OR OBSTRUCTIONS TO VISIBILITY.

WYZ001-212100-
YELLOWSTONE NATIONAL PARK

CITY           SKY/WX    TMP DP  RH WIND       PRES   REMARKS
LK YELLOWSTONE   N/A     63  39  41 CALM      30.38F
W YELLOWSTONE  NOT AVBL

$$
WYZ002>013-054>058-071-098>099-212100-
NORTHERN WYOMING

CITY           SKY/WX    TMP DP  RH WIND       PRES   REMARKS
JACKSON        SUNNY     72  39  30 CALM      30.27F
CODY             N/A    N/A N/A N/A MISG        N/A
GREYBULL       SUNNY     76  40  27 MISG      30.20F
WORLAND        SUNNY     74  42  31 NE7       30.21F
SHERIDAN       SUNNY     78  40  25 SE16G22   30.22F
BUFFALO        SUNNY     74  39  28 S18       30.29F
GILLETTE       SUNNY     72  36  26 SE10G20   30.29F
HULETT         FAIR      72  36  26 MISG      30.30
NEWCASTLE      FAIR      70  32  24 CALM      30.32

$$
WYZ014>020-022>026-101>103-212100-
CENTRAL WYOMING

CITY           SKY/WX    TMP DP  RH WIND       PRES   REMARKS
BIG PINEY      PTSUNNY   65  40  39 NW5       30.34F
PINEDALE       MOCLDY    64  36  34 SW3       30.35F
DUBOIS         FAIR      61  36  39 SE5       30.36F
LANDER         CLOUDY    71  38  29 VRB6      30.27F
RIVERTON       PTSUNNY   67  38  34 E3        30.29F
CASPER         MOSUNNY   74  39  28 E5        30.27F
DOUGLAS        SUNNY     73  41  31 SE20G30   30.30F

$$
WYZ021-027>030-104>119-212100-
SOUTHERN WYOMING

CITY           SKY/WX    TMP DP  RH WIND       PRES   REMARKS
EVANSTON       LGT RAIN  53  50  89 SE6       30.33F
KEMMERER       LGT RAIN  54  46  76 S7        30.37R
FORT BRIDGER   CLOUDY    53  48  82 CALM      30.37F
ROCK SPRINGS   PTSUNNY   65  40  39 SE14      30.32F
DIXON          CLOUDY    64  50  59 SW14      30.40F
RAWLINS        PTSUNNY   69  39  33 SW18G28   30.35F
SARATOGA       MOCLDY    70  46  43 W17G29    30.36F
LARAMIE        SUNNY     71  43  36 S17G24    30.34F
CHEYENNE       MOSUNNY   70  44  39 S16G25    30.34F
TORRINGTON     SUNNY     73  41  31 SE13G23   30.29F
PINE BLUFFS    FAIR      72  39  30 S15G25    30.33F

$$


USA.gov is the U.S. government's official web portal to all federal, state and local government web resources and services.